sat.trackr.live / text

‹ back to catalog

SITRO-AIS 7 (FARTUSHNIY)

NORAD 57194 · 2023-091AE

PAYLOAD ACTIVE UNKNOWN

§ Identity

Operator
Country
CIS
Launch date
2023-06-27
Launch site
VOSTO
Launch vehicle
Mass (kg)
RCS (m²)

Purposes: tech_demo

External: N2YO · Heavens-Above · Gunter

§ Orbital elements

Epoch: 2026-09-19T21:51:53.090496Z

Period
94.30 min
Inclination
97.4966°
Eccentricity
0.0012300
Mean motion
15.27113682 rev/d
Perigee alt
476.0 km
Apogee alt
492.9 km
Semi-major
6,862.6 km
B*
2.5018e-4
RAAN
326.1551°
Arg perigee
129.8695°
Mean anomaly
230.3627°
Rev number
17,872

§ Raw data

SITRO-AIS 7 (FARTUSHNIY)1 57194U 23091AE  26262.91103114  .00006591  00000+0  25018-3 0  99982 57194  97.4966 326.1551 0012300 129.8695 230.3627 15.27113682178722

JSON: /api/v1/satellites/57194 · /tle

For live sub-satellite position, see the globe view (requires WebGL).

§ Visibility from observer

Set your observer location to see the next 7 days of passes ≥ 10°. The values pass through the URL so the page stays shareable.

No JS? Fill the form by hand. The geolocation button needs JavaScript.

§ Radio — SatNOGS DB

ModeDescriptionDownlinkUplink
GMSK USP Mode U - GMSK USP 2K4 TLM 401.200 MHz

1 transmitter · refreshed weekly from db.satnogs.org